Weather reports worldwide

Advertisment
Aberdeen/Dyce, United Kingdom (3091): temperature & dewpoint: 17.08.2017 23:00:00 - 23.08.2017 23:00:00 (BST)Aberdeen/Dyce, United Kingdom (3091): temperature -20cm & temperature -100cm: 17.08.2017 23:00:00 - 23.08.2017 23:00:00 (BST)Aberdeen/Dyce, United Kingdom (3091): wind speed & gusts: 17.08.2017 23:00:00 - 23.08.2017 23:00:00 (BST)Aberdeen/Dyce, United Kingdom (3091): wind direction: 17.08.2017 23:00:00 - 23.08.2017 23:00:00 (BST)Aberdeen/Dyce, United Kingdom (3091): reduced air pressure: 17.08.2017 23:00:00 - 23.08.2017 23:00:00 (BST)Aberdeen/Dyce, United Kingdom (3091): visibility: 17.08.2017 23:00:00 - 23.08.2017 23:00:00 (BST)Aberdeen/Dyce, United Kingdom (3091): sunshine duration: 17.08.2017 23:00:00 - 23.08.2017 23:00:00 (BST)Aberdeen/Dyce, United Kingdom (3091): precipitation: 17.08.2017 23:00:00 - 23.08.2017 23:00:00 (BST)
Date & Time tt [°C] td [°C] tt -20cm [°C] tt -100cm [°C] ff [km/h] ff [kn] fx [km/h] fx [kn] dd ppp [hPa] vv [km] sd [min] rr [mm]
23.08.2017 23:00:00 13,2 13,2 - - 4 2 - - - 1008,4 0,2 0 0,0
23.08.2017 22:00:00 14,3 14,3 - - 8 4 - - ESE 1008,4 7 0 0,0
23.08.2017 21:00:00 14,3 14,3 - - 8 4 - - S 1008,5 1,0 0 0,0
23.08.2017 20:00:00 14,4 14,3 - - 11 6 - - SSE 1008,6 2,4 0 0,0
23.08.2017 19:00:00 14,5 14,5 - - 11 6 - - SSE 1008,8 2,2 0 0,0
23.08.2017 18:00:00 14,8 14,7 - - 8 4 - - SE 1008,9 2,6 0 0,0
23.08.2017 17:00:00 14,9 14,7 - - 13 7 - - SSE 1009,3 4,2 0 0,4
23.08.2017 16:00:00 14,7 14,5 - - 16 9 - - SSE 1009,7 2,6 0 0,2
23.08.2017 15:00:00 14,8 14,7 - - 18 10 - - SSE 1010,1 2,2 0 0,8
23.08.2017 14:00:00 14,7 14,5 - - 22 12 - - SSE 1010,4 2,9 0 0,2
23.08.2017 13:00:00 14,8 14,6 - - 18 10 - - SSE 1010,6 2,5 0 0,4
23.08.2017 12:00:00 14,8 14,6 - - 18 10 - - SE 1011,0 3,0 0 2,8
23.08.2017 11:00:00 14,9 14,4 - - 22 12 - - SE 1011,5 7 0 0,2
23.08.2017 10:00:00 14,9 14,4 15,0 14,0 24 13 - - SE 1011,6 7 0 0,0
23.08.2017 09:00:00 14,7 14,3 - - 24 13 - - SE 1011,8 6 0 1,0
23.08.2017 08:00:00 14,8 14,3 - - 24 13 - - SE 1012,1 6 0 0,0
23.08.2017 07:00:00 14,8 14,2 - - 22 12 - - SE 1012,4 6 0 0,0
23.08.2017 06:00:00 14,7 14,3 - - 21 11 - - SSE 1012,6 6 0 0,0
23.08.2017 05:00:00 14,8 14,5 - - 21 11 - - SE 1013,3 6 0 0,4
23.08.2017 04:00:00 14,8 14,5 - - 18 10 - - SE 1013,7 3,7 0 0,6
23.08.2017 03:00:00 15,0 14,9 - - 21 11 - - SE 1014,5 2,8 0 0,4
23.08.2017 02:00:00 14,8 14,6 - - 18 10 - - SE 1015,1 2,9 0 0,4
23.08.2017 01:00:00 14,8 14,6 - - 18 10 - - SE 1015,8 2,0 - 0,2
23.08.2017 00:00:00 14,7 14,6 - - 21 11 - - SE 1016,4 2,6 0 0,2
22.08.2017 23:00:00 14,8 14,8 - - 18 10 - - SE 1016,8 4,8 0 0,0
22.08.2017 22:00:00 14,6 14,6 - - 16 9 - - SE 1017,3 3,0 0 0,0
22.08.2017 21:00:00 14,6 14,6 - - 16 9 - - SE 1017,7 2,3 0 0,2
22.08.2017 20:00:00 14,7 14,5 - - 15 8 - - ESE 1017,9 3,7 0 0,0
22.08.2017 19:00:00 14,7 14,3 - - 18 10 - - SE 1018,0 4,0 0 0,0
22.08.2017 18:00:00 14,9 14,4 - - 13 7 - - SE 1018,4 6 0 0,0
22.08.2017 17:00:00 14,9 14,4 - - 16 9 - - ESE 1018,8 9 0 0,0
22.08.2017 16:00:00 15,0 14,5 - - 16 9 - - SE 1019,1 10 0 0,0
22.08.2017 15:00:00 14,9 14,4 - - 15 8 - - SE 1019,7 9 0 0,0
22.08.2017 14:00:00 14,8 14,5 - - 16 9 - - SE 1020,2 9 0 0,0
22.08.2017 13:00:00 14,6 14,3 - - 16 9 - - SE 1020,3 10 0 0,0
22.08.2017 12:00:00 14,5 14,2 - - 18 10 - - ESE 1020,5 10 0 0,2
22.08.2017 11:00:00 14,6 13,9 - - 16 9 - - ESE 1020,9 10 0 0,0
22.08.2017 10:00:00 14,8 14,0 15,2 14,0 15 8 - - SE 1020,9 10 0 0,0
22.08.2017 09:00:00 14,5 13,7 - - 16 9 - - SE 1021,0 10 0 0,0
22.08.2017 08:00:00 14,1 13,4 - - 15 8 - - ESE 1020,9 10 0 0,0
22.08.2017 07:00:00 14,0 13,4 - - 15 8 - - ESE 1020,7 10 0 0,0
22.08.2017 06:00:00 13,8 13,3 - - 13 7 - - ESE 1020,8 10 0 0,0
22.08.2017 05:00:00 13,9 13,5 - - 13 7 - - ESE 1020,9 10 0 0,0
22.08.2017 04:00:00 14,0 13,4 - - 11 6 - - ESE 1021,0 10 0 0,0
22.08.2017 03:00:00 14,0 13,4 - - 11 6 - - ESE 1021,0 10 0 0,0
22.08.2017 02:00:00 14,0 13,4 - - 13 7 - - ESE 1021,1 10 0 0,0
22.08.2017 01:00:00 14,0 13,4 - - 11 6 - - ESE 1021,0 10 - 0,0
22.08.2017 00:00:00 14,0 13,4 - - 11 6 - - ESE 1021,0 10 0 0,0
21.08.2017 23:00:00 14,0 13,3 - - 9 5 - - ESE 1021,1 10 0 0,0
21.08.2017 22:00:00 13,9 13,0 - - 9 5 - - ESE 1021,2 10 0 0,0
21.08.2017 21:00:00 13,3 12,1 - - 9 5 - - ESE 1021,1 10 0 0,0
21.08.2017 20:00:00 14,2 12,3 - - 9 5 - - SE 1020,7 10 0 0,0
21.08.2017 19:00:00 14,5 12,4 - - 9 5 - - ESE 1020,6 10 0 0,0
21.08.2017 18:00:00 14,9 12,4 - - 15 8 - - ESE 1020,6 10 0 0,0
21.08.2017 17:00:00 15,4 12,8 - - 15 8 - - ESE 1020,8 10 6 0,0
21.08.2017 16:00:00 15,8 12,8 - - 21 11 - - ESE 1020,8 10 6 0,0
21.08.2017 15:00:00 16,8 11,4 - - 16 9 - - SSE 1020,6 10 12 0,0
21.08.2017 14:00:00 16,9 11,4 - - 21 11 - - SSE 1020,7 10 42 0,0
21.08.2017 13:00:00 16,8 11,8 - - 13 7 - - ESE 1020,9 10 48 0,0
21.08.2017 12:00:00 16,0 11,8 - - 15 8 - - SE 1021,2 10 30 0,0
21.08.2017 11:00:00 14,5 12,4 - - 13 7 - - ESE 1021,8 10 6 0,0
21.08.2017 10:00:00 14,0 12,8 15,0 14,0 9 5 - - ESE 1021,8 10 0 0,0
21.08.2017 09:00:00 13,7 12,2 - - 11 6 - - ESE 1022,0 10 0 0,0
21.08.2017 08:00:00 13,1 12,3 - - 5 3 - - E 1021,8 10 0 0,0
21.08.2017 07:00:00 12,1 11,4 - - 4 2 - - ENE 1021,7 10 0 0,0
21.08.2017 06:00:00 11,9 11,3 - - 2 1 - - - 1021,8 10 0 0,0
21.08.2017 05:00:00 11,4 10,8 - - 2 1 - - - 1021,8 10 0 0,0
21.08.2017 04:00:00 12,3 11,3 - - 4 2 - - E 1022,1 10 0 0,0
21.08.2017 03:00:00 12,3 11,2 - - 4 2 - - NNE 1022,1 10 0 0,0
21.08.2017 02:00:00 12,4 11,1 - - 4 2 - - ENE 1022,1 10 0 0,0
21.08.2017 01:00:00 12,5 11,0 - - 2 1 - - - 1022,4 10 - 0,0
21.08.2017 00:00:00 12,7 10,6 - - 4 2 - - - 1022,2 10 0 0,0
20.08.2017 23:00:00 12,7 10,9 - - 2 1 - - - 1022,1 10 0 0,0
20.08.2017 22:00:00 12,8 11,5 - - 4 2 - - ENE 1021,7 10 0 0,0
20.08.2017 21:00:00 13,0 11,3 - - 4 2 - - - 1021,5 10 0 0,0
20.08.2017 20:00:00 13,4 11,3 - - 8 4 - - E 1021,2 10 0 0,0
20.08.2017 19:00:00 14,2 11,8 - - 9 5 - - E 1020,8 10 0 0,0
20.08.2017 18:00:00 15,2 10,3 - - 11 6 - - SSE 1020,4 10 0 0,0
20.08.2017 17:00:00 15,8 9,8 - - 9 5 - - E 1020,2 10 6 0,0
20.08.2017 16:00:00 17,6 10,0 - - 13 7 - - N 1019,6 10 60 0,0
20.08.2017 15:00:00 17,5 8,5 - - 18 10 - - NW 1019,4 10 24 0,0
20.08.2017 14:00:00 16,8 9,8 - - 21 11 - - NW 1019,4 10 12 0,0
20.08.2017 13:00:00 16,4 9,6 - - 18 10 - - WNW 1018,8 10 30 0,0
20.08.2017 12:00:00 15,8 9,5 - - 22 12 - - NW 1018,5 10 24 0,0
20.08.2017 11:00:00 15,3 10,0 - - 24 13 - - NW 1017,8 10 36 0,0
20.08.2017 10:00:00 15,0 10,3 14,9 14,0 29 16 48 26 NW 1017,3 10 60 0,0
20.08.2017 09:00:00 14,2 10,5 - - 26 14 - - NW 1016,4 10 60 0,0
20.08.2017 08:00:00 13,0 10,0 - - 21 11 - - WNW 1016,1 10 54 0,0
20.08.2017 07:00:00 12,2 10,2 - - 22 12 - - W 1015,3 10 12 0,0
20.08.2017 06:00:00 12,0 10,1 - - 21 11 - - W 1014,7 10 0 0,0
20.08.2017 05:00:00 12,3 10,4 - - 22 12 - - WNW 1014,0 10 0 0,2
20.08.2017 04:00:00 12,4 10,2 - - 21 11 - - WNW 1013,4 10 0 0,0
20.08.2017 03:00:00 12,4 9,8 - - 21 11 - - WNW 1012,8 10 0 0,0
20.08.2017 02:00:00 12,8 10,1 - - 21 11 - - W 1012,2 10 0 0,0
20.08.2017 01:00:00 12,9 11,0 - - 15 8 - - WNW 1012,0 10 - 0,4
20.08.2017 00:00:00 13,0 11,0 - - 22 12 - - W 1011,3 10 0 0,0
19.08.2017 23:00:00 12,9 10,9 - - 11 6 - - W 1010,7 10 0 0,0
19.08.2017 22:00:00 13,0 10,8 - - 11 6 - - WSW 1009,8 10 0 0,0
19.08.2017 21:00:00 13,9 11,1 - - 15 8 - - W 1009,0 10 6 0,0
19.08.2017 20:00:00 14,8 11,5 - - 13 7 - - W 1008,1 10 0 0,0
19.08.2017 19:00:00 14,5 11,6 - - 15 8 - - NW 1007,3 10 0 0,2
19.08.2017 18:00:00 15,3 12,9 - - 13 7 - - W 1006,5 10 12 0,2
19.08.2017 17:00:00 15,9 12,7 - - 16 9 - - W 1005,6 10 18 1,2
19.08.2017 16:00:00 15,6 11,3 - - 24 13 46 25 NNW 1004,7 10 18 3,2
19.08.2017 15:00:00 18,2 10,3 - - 29 16 - - NW 1003,7 10 36 0,0
19.08.2017 14:00:00 17,1 9,5 - - 26 14 - - W 1003,2 10 0 0,0
19.08.2017 13:00:00 16,4 9,2 - - 18 10 - - W 1002,8 10 6 0,0
19.08.2017 12:00:00 16,0 9,4 - - 15 8 - - WSW 1002,3 10 0 0,0
19.08.2017 11:00:00 16,3 8,7 - - 21 11 - - W 1002,1 10 30 0,0
19.08.2017 10:00:00 15,6 8,5 15,0 14,0 16 9 - - WSW 1001,9 10 60 0,0
19.08.2017 09:00:00 14,1 8,0 - - 24 13 - - W 1001,8 10 42 0,0
19.08.2017 08:00:00 12,5 7,9 - - 18 10 - - WSW 1001,4 10 42 0,0
19.08.2017 07:00:00 12,0 7,4 - - 15 8 - - W 1001,4 10 12 0,0
19.08.2017 06:00:00 12,2 8,0 - - 26 14 - - W 1001,3 10 0 0,0
19.08.2017 05:00:00 11,9 8,7 - - 21 11 - - W 1001,2 10 0 0,0
19.08.2017 04:00:00 12,4 9,7 - - 16 9 - - W 1001,1 10 0 0,0
19.08.2017 03:00:00 12,7 10,1 - - 16 9 - - WSW 1000,7 10 0 0,0
19.08.2017 02:00:00 13,4 9,7 - - 18 10 - - W 1000,2 10 0 0,0
19.08.2017 01:00:00 12,8 9,7 - - 21 11 - - W 999,7 10 - 0,0
19.08.2017 00:00:00 12,1 9,9 - - 9 5 - - WSW 999,5 10 0 0,0
18.08.2017 23:00:00 12,0 10,2 - - 11 6 - - WSW 999,1 10 0 0,2
18.08.2017 22:00:00 12,0 10,5 - - 9 5 - - WSW 999,0 10 0 0,0
18.08.2017 21:00:00 12,3 10,8 - - 11 6 - - WSW 998,8 10 0 0,0
18.08.2017 20:00:00 12,3 11,1 - - 9 5 - - SW 998,5 10 0 0,6
18.08.2017 19:00:00 12,0 10,9 - - 11 6 - - SW 998,2 7 0 1,4
18.08.2017 18:00:00 12,0 10,9 - - 16 9 - - SW 998,0 8 0 1,6
18.08.2017 17:00:00 12,7 11,6 - - 15 8 - - SW 998,0 8 0 1,0
18.08.2017 16:00:00 12,2 10,9 - - 15 8 - - SW 997,9 9 0 1,6
18.08.2017 15:00:00 12,0 10,1 - - 15 8 - - SW 998,1 8 0 1,2
18.08.2017 14:00:00 12,5 10,3 - - 15 8 - - WSW 997,9 10 0 0,0
18.08.2017 13:00:00 12,9 10,6 - - 16 9 - - W 997,5 10 0 0,0
18.08.2017 12:00:00 12,6 11,1 - - 18 10 - - WSW 997,2 10 0 0,6
18.08.2017 11:00:00 12,6 11,6 - - 13 7 - - SW 996,9 10 0 3,8
18.08.2017 10:00:00 13,1 12,5 15,5 14,0 5 3 - - - 997,2 10 0 0,4
18.08.2017 09:00:00 12,7 11,7 - - 8 4 - - S 997,1 10 0 0,2
18.08.2017 08:00:00 13,3 12,2 - - 16 9 - - S 997,5 10 0 0,8
18.08.2017 07:00:00 13,9 13,2 - - 13 7 - - S 998,0 8 0 0,4
18.08.2017 06:00:00 13,7 12,7 - - 15 8 - - S 998,6 10 0 0,0
18.08.2017 05:00:00 13,4 12,6 - - 13 7 - - SSE 999,0 10 0 0,0
18.08.2017 04:00:00 12,8 12,1 - - 8 4 - - SSE 1000,0 10 0 0,0
18.08.2017 03:00:00 11,9 11,2 - - 8 4 - - S 1000,7 10 0 0,0
18.08.2017 02:00:00 12,5 11,3 - - 5 3 - - - 1001,2 10 0 0,0
18.08.2017 01:00:00 13,6 11,3 - - 8 4 - - S 1001,8 10 - 0,0
18.08.2017 00:00:00 13,9 12,0 - - 8 4 - - SE 1002,2 10 0 0,0
17.08.2017 23:00:00 13,5 11,6 - - 4 2 - - - 1002,6 10 0 0,0

tt = temperature
td = dewpoint
tt -20cm = temperature -20cm
tt -100cm = temperature -100cm
ff = wind speed
fx = gusts
dd = wind direction
ppp = reduced air pressure
vv = visibility
sd = sunshine duration
rr = precipitation

Next stations